RH
20 19 20 22 26 29 28 29 31 31 30 26 22 18 15 14 16 18 14 12 20 20 21 23 21 17 16 18 21 18 18 40 41 38 44 42 42 36 51 56 58 59 76 77 79
21 21 22 27 29 30 29 31 34 33 31 26 22 18 16 18 18 16 14 13 13 18 26 24 20 18 23 20 21 18 18 28 35 38 56 47 40 42 51 57 58 59 73 80 78
23 25 25 31 30 32 32 33 35 33 30 26 22 18 19 23 19 19 20 21 21 20 22 22 19 18 23 21 19 19 18 18 32 30 32 43 33 44 53 53 54 68 83 82 76
25 29 30 34 34 35 34 35 35 33 30 25 21 20 24 25 26 21 20 18 18 21 20 22 21 23 25 20 18 16 14 18 28 31 27 28 29 49 47 40 45 52 66 68 63
27 32 33 37 37 36 35 37 34 33 29 24 22 25 27 28 16 21 21 19 18 19 20 22 22 23 24 20 14 14 12 12 16 32 23 24 28 37 40 38 40 52 53 55 55
30 34 36 40 37 37 36 37 34 31 26 22 25 28 29 39 16 22 19 19 18 18 19 21 19 20 19 14 11 11 13 13 15 26 21 16 18 30 29 42 43 48 57 62 54
34 36 40 41 36 38 36 36 33 28 24 24 28 30 32 16 19 19 18 19 16 15 17 18 19 20 19 13 10 12 15 15 14 14 14 14 16 17 37 50 51 66 68 67 57
38 40 42 41 37 38 35 33 30 25 25 29 30 35 23 15 16 17 19 15 15 15 15 18 19 20 16 12 16 16 17 17 15 14 16 14 18 20 65 56 59 64 69 68 60
39 43 45 41 38 37 33 30 28 27 30 32 38 39 21 16 18 18 15 13 15 16 18 19 20 16 14 19 19 20 18 19 18 18 16 15 19 36 69 69 66 64 59 59 60
42 46 46 39 37 36 31 29 30 30 32 40 40 46 17 20 18 16 14 13 17 17 18 18 18 21 20 17 22 22 21 21 20 18 20 22 35 45 59 64 68 69 64 61 58
45 48 46 37 37 33 29 34 36 41 39 28 25 28 26 18 18 14 13 12 17 18 24 22 21 20 18 18 16 19 19 19 20 20 32 40 46 54 63 67 71 74 68 64 64
48 49 44 37 34 30 30 36 36 50 44 24 24 25 20 19 20 14 14 15 18 24 23 24 24 20 26 21 22 22 24 26 26 27 29 42 52 57 61 72 74 78 78 72 76
50 50 42 36 32 28 28 43 61 55 58 31 19 19 18 19 19 16 17 18 21 23 26 29 22 24 29 30 30 32 29 28 26 27 30 33 36 50 64 73 79 82 82 82 80
52 50 42 35 32 28 30 45 60 61 41 26 26 21 19 19 18 18 18 18 22 26 24 29 28 26 29 32 30 35 29 29 27 24 28 31 26 41 58 68 72 77 78 76 72
54 51 45 36 31 30 41 42 61 57 48 22 21 17 18 18 18 18 19 18 24 26 24 30 29 30 32 30 28 35 33 34 34 36 32 39 29 33 58 70 69 70 73 69 66
54 53 47 34 41 33 40 58 57 54 58 25 21 20 22 20 20 19 22 19 22 34 32 33 28 29 29 34 32 39 38 42 45 43 45 46 44 40 51 54 63 64 69 62 54
50 53 47 33 51 38 54 49 49 55 30 27 24 22 25 25 28 31 37 39 31 38 41 36 34 30 28 32 33 35 39 46 47 53 45 49 53 41 43 46 53 58 62 56 51
49 54 44 38 70 64 51 38 45 40 44 24 25 27 30 30 36 36 37 40 37 35 40 41 37 31 29 31 35 41 37 58 54 59 52 48 53 42 47 51 53 57 54 51 54
52 55 42 37 83 70 45 46 49 41 37 31 29 34 35 32 35 40 42 39 37 36 37 44 39 30 29 34 31 43 45 40 61 65 59 47 47 42 52 56 55 54 60 59 54
53 54 39 41 73 73 45 50 34 44 32 28 30 36 41 38 39 42 40 41 36 36 36 43 46 32 28 30 34 33 39 49 51 57 42 41 50 41 56 55 57 56 57 62 60
56 63 50 59 74 53 54 49 46 43 36 30 37 38 38 40 43 45 44 42 40 38 36 40 44 38 33 33 39 39 44 53 50 52 44 48 31 47 48 50 54 52 60 62 62
70 67 72 65 47 62 56 44 40 35 35 39 33 34 38 42 49 49 48 44 49 43 38 42 49 49 36 33 36 36 40 45 49 47 68 60 40 50 55 52 57 59 58 60 63
66 76 73 67 66 62 48 40 37 34 35 37 41 38 47 56 53 54 55 50 43 40 47 44 49 53 40 34 36 39 43 46 50 58 61 71 33 53 61 63 62 65 69 66 64
57 89 72 67 37 50 44 38 37 39 39 38 47 47 55 57 61 64 60 50 40 44 44 39 50 46 46 37 43 41 45 46 44 58 50 47 34 44 59 65 72 74 74 69 66
58 76 62 82 63 49 35 45 41 42 38 37 43 45 53 61 60 65 60 52 44 51 55 47 48 50 57 56 45 36 37 50 43 42 47 38 42 34 43 58 70 75 76 71 66
56 61 52 63 44 48 48 52 47 46 44 38 50 51 46 56 49 66 58 52 39 56 60 58 63 53 60 61 56 48 41 40 43 39 41 42 40 34 57 68 78 81 78 72 62
59 42 31 76 74 55 59 55 48 54 55 52 50 53 50 53 55 58 49 50 49 59 68 60 69 63 60 60 44 55 45 43 43 43 37 43 34 66 71 71 77 82 75 66 60
Wind_Speed
18 19 21 22 22 21 22 20 20 19 17 15 14 13 13 13 13 16 19 11 2 6 5 6 5 6 6 6 5 3 1 4 6 6 5 9 6 2 5 7 3 4 7 13 28
19 20 21 22 22 22 21 20 19 17 14 13 12 11 10 11 14 17 9 6 8 6 5 3 5 6 3 4 4 4 2 7 6 12 9 8 5 10 1 5 2 4 8 28 26
19 20 21 21 21 21 20 19 17 15 13 11 10 8 8 9 13 1 3 5 9 10 10 4 7 7 4 5 7 4 2 6 6 16 20 32 11 6 9 6 6 14 27 28 25
19 20 21 20 20 20 19 17 15 12 10 9 8 6 6 7 2 1 6 2 4 12 14 11 10 7 5 5 7 4 3 8 16 18 4 16 12 5 9 2 5 20 33 28 24
19 19 20 20 19 20 18 15 13 10 8 7 6 6 6 6 9 1 6 7 2 6 13 14 13 7 5 6 5 3 3 8 16 11 6 15 7 3 5 1 10 23 27 27 24
18 19 19 18 19 18 16 13 11 7 6 6 6 6 6 4 5 2 9 9 6 5 10 17 9 12 3 4 3 7 5 6 10 14 8 6 4 7 3 12 15 26 25 24 23
17 18 18 17 17 15 12 11 8 5 6 6 6 6 9 14 4 7 9 9 6 4 6 10 14 5 2 3 8 12 7 5 5 11 4 10 3 2 11 18 22 23 24 23 22
16 17 16 15 16 12 10 8 6 5 6 6 5 6 8 3 9 8 7 7 5 4 4 8 10 10 5 6 4 4 4 4 1 6 5 4 5 6 12 20 18 18 19 19 18
16 16 15 14 13 9 7 6 6 6 6 5 4 5 7 4 7 5 5 5 5 2 2 5 11 5 3 4 3 7 4 3 4 3 5 1 3 8 4 9 11 13 16 17 18
15 14 14 13 9 6 6 7 7 7 6 4 5 3 5 1 3 7 4 4 3 4 5 4 3 3 2 3 4 4 5 2 4 1 7 5 3 6 6 10 9 9 12 13 13
15 14 12 10 7 8 10 9 5 3 11 8 3 3 2 9 4 6 3 2 4 2 1 3 4 3 2 2 3 4 4 4 1 2 6 4 4 6 5 9 9 8 9 8 7
14 12 11 9 9 12 15 8 5 1 5 15 16 15 13 8 2 3 3 2 2 1 2 4 3 1 5 4 5 3 6 3 3 4 4 3 6 6 7 4 5 10 10 10 12
14 11 11 10 12 16 19 7 4 4 2 4 14 10 3 5 3 5 6 5 3 2 2 4 2 3 4 4 8 5 5 3 4 4 7 3 2 2 6 8 9 10 14 16 17
13 11 12 12 14 17 18 6 2 2 3 3 4 4 6 4 1 5 6 4 3 4 4 5 3 4 3 3 2 4 1 4 5 2 2 3 2 2 3 5 8 12 13 15 17
14 13 14 16 10 19 8 7 4 3 3 3 4 5 6 5 5 2 3 4 5 3 3 1 2 3 5 1 2 4 3 4 3 4 3 2 1 3 5 6 9 11 11 14 14
16 16 18 23 15 18 8 6 5 4 3 2 5 5 4 2 2 2 3 6 6 4 5 3 2 2 2 3 4 8 5 6 4 2 0 1 2 2 4 5 11 12 13 17 18
19 18 21 25 11 17 10 7 3 3 2 2 3 4 3 2 3 3 4 4 3 4 3 4 3 3 3 4 3 4 4 2 0 1 3 0 3 4 3 6 18 21 20 21 19
20 20 23 28 10 13 10 3 3 1 5 1 3 3 5 4 3 2 3 2 4 4 3 3 0 3 4 2 4 2 3 4 4 3 1 2 4 2 3 6 10 18 22 22 21
22 21 24 27 13 10 7 2 7 5 3 6 3 4 2 1 4 3 2 2 0 1 5 4 1 1 3 1 1 3 2 2 6 1 1 1 3 4 1 2 12 20 19 21 20
25 22 26 24 15 14 3 5 4 5 3 2 4 3 4 3 3 3 1 1 2 2 1 5 3 1 1 1 7 1 7 3 2 4 3 2 4 4 3 6 9 16 20 15 14
24 13 17 20 16 9 4 6 4 6 6 6 5 4 3 5 3 2 4 1 1 2 4 3 3 2 0 0 5 2 2 5 4 1 3 1 3 3 7 9 15 18 12 12 12
21 3 18 23 5 1 4 5 4 1 3 5 4 3 5 3 3 3 6 2 2 2 4 1 4 3 2 0 1 1 3 4 3 4 1 1 4 1 4 9 9 9 11 13 12
18 5 21 24 4 2 2 3 3 2 2 4 3 3 3 4 4 2 3 1 3 3 6 5 1 3 2 2 1 3 3 4 5 2 5 4 3 2 1 3 9 14 14 16 17
17 3 6 10 4 8 5 4 3 2 2 3 5 4 4 3 4 5 3 1 2 3 5 4 3 4 6 3 2 4 4 5 4 3 5 6 3 5 7 7 10 15 17 18 17
11 4 9 4 3 4 4 6 5 2 2 2 3 3 6 4 2 3 2 2 3 5 3 3 3 2 2 2 1 2 4 9 8 4 6 4 9 5 11 13 17 17 18 18 16
11 6 7 5 18 6 3 6 7 3 1 0 7 3 3 6 6 8 7 4 4 2 2 2 3 2 3 2 3 3 4 7 6 4 10 4 12 7 2 11 17 20 19 17 14
10 13 16 1 4 6 6 5 7 8 3 3 9 5 4 2 4 9 8 11 7 5 3 2 5 3 3 2 3 5 9 12 6 6 7 10 8 8 6 14 21 22 21 19 14
Wind_Direction
292 298 301 305 311 314 312 310 305 302 301 296 289 289 291 293 288 282 274 279 244 203 243 245 217 203 203 195 208 204 150 131 152 117 108 101 92 72 134 136 124 150 156 168 152
293 296 301 306 311 313 311 307 304 301 299 290 284 290 295 295 293 284 300 259 221 236 242 228 199 183 200 202 184 210 150 176 181 145 142 11 264 180 170 177 134 159 149 151 157
289 295 300 306 309 309 307 304 304 302 294 282 283 287 289 301 311 79 358 206 208 218 228 225 203 192 226 186 198 205 157 158 197 180 177 189 157 158 150 219 207 183 152 160 165
287 295 299 303 305 306 303 303 302 295 284 274 278 276 277 295 225 68 43 57 190 218 216 216 192 178 205 200 198 207 184 153 156 213 174 146 144 145 170 277 231 167 157 164 169
286 294 298 300 304 302 301 303 294 288 273 265 255 249 273 270 254 338 6 12 300 229 216 206 189 200 194 193 156 192 155 197 210 176 105 143 140 153 170 121 153 158 166 172 172
285 292 295 299 303 299 300 296 286 275 258 246 239 244 268 265 239 269 337 342 336 235 217 201 205 222 203 226 161 177 127 162 193 163 151 113 108 153 151 154 163 169 172 176 176
283 289 293 299 297 296 294 285 275 251 237 226 231 262 267 234 229 293 328 318 318 298 241 239 219 191 269 121 150 125 97 85 82 135 160 143 51 282 172 167 167 173 178 183 185
282 286 290 296 292 291 282 266 243 216 218 214 241 276 259 227 257 285 294 307 322 285 252 258 213 231 227 141 64 89 70 117 61 158 139 163 153 3 167 169 164 168 178 188 192
278 283 287 292 286 280 260 231 210 195 200 220 255 249 263 213 255 266 275 302 329 309 259 259 147 159 137 113 57 27 141 108 127 31 127 95 130 356 158 161 143 156 180 194 205
274 276 283 282 273 250 216 195 181 184 207 229 245 273 250 88 243 233 256 311 345 299 165 170 171 118 81 107 175 179 124 96 147 113 44 93 66 10 42 138 124 138 162 183 202
267 271 277 266 238 210 187 163 156 228 219 208 214 242 183 360 213 207 224 306 336 17 70 26 103 128 142 125 154 138 110 138 92 38 92 81 87 31 78 103 121 136 163 178 199
258 264 263 242 211 196 184 195 188 179 271 236 246 266 274 299 284 224 222 186 70 11 4 36 87 352 83 105 91 106 119 83 86 8 101 148 73 64 65 83 143 148 144 145 131
248 250 244 217 203 194 192 184 172 277 257 237 233 251 254 190 213 186 194 154 110 55 32 124 168 103 86 93 107 57 107 135 123 98 69 127 101 41 60 91 113 127 139 135 132
235 231 225 198 199 192 204 194 221 221 66 264 219 227 193 178 139 168 183 177 51 151 139 79 350 100 111 99 107 89 28 104 115 127 145 320 242 271 141 129 137 144 151 148 148
224 217 214 188 195 188 184 201 207 181 109 236 185 163 167 168 146 142 151 157 147 135 156 194 102 95 70 31 76 124 110 90 104 94 142 51 248 128 164 180 171 169 172 171 167
213 209 203 192 201 179 189 195 170 54 254 209 169 149 104 95 90 140 136 98 125 87 43 71 38 60 115 52 60 153 83 55 55 62 18 54 222 232 198 199 183 190 189 179 168
206 207 205 198 205 191 184 163 69 146 317 203 161 133 131 111 59 49 32 33 118 104 46 17 352 337 62 88 59 77 69 21 34 180 224 127 196 274 232 204 184 185 185 180 174
203 204 203 204 199 183 177 78 152 224 215 355 122 101 141 148 20 45 89 90 39 85 109 140 136 9 347 93 152 96 158 163 203 199 213 211 229 178 261 237 200 184 178 180 186
198 202 206 203 203 185 169 126 199 201 187 152 75 103 110 113 126 91 65 125 34 47 125 139 118 349 50 134 158 159 125 132 108 37 289 264 260 255 55 107 176 182 185 191 193
189 197 208 209 212 195 108 217 205 194 168 148 141 140 153 156 95 91 160 257 135 45 142 180 117 348 116 96 55 135 138 130 42 152 232 263 279 254 228 185 177 184 196 193 196
183 175 204 208 188 201 161 223 217 227 193 165 154 136 151 136 116 118 171 274 164 74 85 129 108 253 208 9 169 141 125 67 103 122 169 255 249 216 252 201 190 195 196 188 190
173 155 181 179 157 164 162 199 185 230 176 216 123 120 143 132 121 142 180 221 169 172 143 121 124 140 191 177 274 170 148 139 132 185 84 143 268 301 285 224 194 177 183 185 187
170 141 166 179 148 181 248 225 211 116 183 188 116 107 74 128 109 140 153 115 166 140 159 183 85 96 10 351 358 208 148 112 106 97 187 155 253 173 248 183 188 170 172 169 165
171 124 134 196 193 143 157 191 136 200 191 100 118 99 105 89 28 159 144 100 121 116 117 113 117 165 189 185 148 178 171 167 141 151 169 229 245 212 205 190 171 164 166 164 165
188 173 154 179 211 146 148 170 140 205 150 99 67 138 143 119 93 133 128 96 57 142 76 106 152 123 89 25 283 234 183 185 205 173 188 222 218 234 216 197 185 171 166 166 170
163 137 141 127 161 122 118 205 145 158 106 148 121 139 125 152 181 189 144 188 185 85 84 20 154 129 179 356 5 275 236 210 230 219 250 232 261 221 237 166 173 179 175 177 180
166 150 165 84 114 117 191 179 184 136 48 51 146 111 87 118 109 107 114 111 117 134 125 100 137 123 242 358 347 315 222 206 196 205 207 224 242 163 176 185 184 181 185 188 193